TimeEST,TemperatureF,Dew PointF,Humidity,Sea Level PressureIn,VisibilityMPH,Wind Direction,Wind SpeedMPH,Gust SpeedMPH,PrecipitationIn,Events,Conditions,WindDirDegrees,DateUTC
12:53 AM,21.0,15.1,78,30.04,10.0,Calm,Calm,-,N/A,,Clear,0,2012-12-24 05:53:00
1:53 AM,21.0,14.0,74,30.03,10.0,Calm,Calm,-,N/A,,Clear,0,2012-12-24 06:53:00
2:53 AM,17.1,12.9,84,30.05,10.0,Calm,Calm,-,N/A,,Clear,0,2012-12-24 07:53:00
3:53 AM,16.0,12.9,88,30.05,10.0,Calm,Calm,-,N/A,,Clear,0,2012-12-24 08:53:00
4:53 AM,19.9,15.1,81,30.02,10.0,ENE,3.5,-,N/A,,Clear,70,2012-12-24 09:53:00
5:53 AM,21.0,16.0,81,30.01,10.0,East,4.6,-,N/A,,Scattered Clouds,100,2012-12-24 10:53:00
6:01 AM,21.2,15.8,80,29.97,10.0,East,4.6,-,N/A,,Mostly Cloudy,100,2012-12-24 11:01:00
6:53 AM,21.9,17.1,82,30.00,10.0,East,8.1,-,N/A,,Overcast,100,2012-12-24 11:53:00
7:34 AM,21.2,17.6,86,29.97,10.0,ESE,5.8,-,N/A,,Scattered Clouds,110,2012-12-24 12:34:00
7:53 AM,21.9,17.1,82,30.01,10.0,East,5.8,-,N/A,,Partly Cloudy,100,2012-12-24 12:53:00
8:28 AM,23.0,17.6,80,29.97,10.0,ENE,6.9,-,N/A,,Mostly Cloudy,70,2012-12-24 13:28:00
8:53 AM,24.1,17.1,75,30.01,10.0,ENE,6.9,-,N/A,,Overcast,60,2012-12-24 13:53:00
9:53 AM,25.0,18.0,75,29.99,10.0,East,9.2,-,N/A,,Overcast,80,2012-12-24 14:53:00
10:53 AM,26.1,19.0,75,29.98,10.0,East,9.2,-,N/A,,Overcast,90,2012-12-24 15:53:00
11:53 AM,28.0,19.9,72,29.95,10.0,East,8.1,-,N/A,,Overcast,90,2012-12-24 16:53:00
12:53 PM,28.9,19.9,69,29.96,10.0,North,4.6,-,N/A,,Overcast,350,2012-12-24 17:53:00
1:53 PM,30.0,21.0,69,29.90,10.0,ENE,11.5,-,N/A,,Overcast,70,2012-12-24 18:53:00
2:53 PM,30.9,21.9,69,29.89,10.0,ENE,11.5,-,N/A,,Overcast,70,2012-12-24 19:53:00
3:53 PM,30.0,21.9,72,29.90,10.0,NE,13.8,-,N/A,,Overcast,40,2012-12-24 20:53:00
4:53 PM,30.0,21.9,72,29.90,9.0,NE,12.7,-,N/A,,Overcast,40,2012-12-24 21:53:00
5:12 PM,30.2,21.2,69,29.87,2.5,NE,11.5,-,0.00,Snow,Light Snow,50,2012-12-24 22:12:00
5:22 PM,28.4,21.2,74,29.87,3.0,NE,16.1,-,0.00,Snow,Light Snow,40,2012-12-24 22:22:00
5:35 PM,28.4,23.0,80,29.88,2.5,NE,11.5,-,0.00,Snow,Light Snow,40,2012-12-24 22:35:00
5:48 PM,28.4,23.0,80,29.88,2.0,NE,11.5,-,0.00,Snow,Light Snow,40,2012-12-24 22:48:00
5:53 PM,28.9,24.1,82,29.92,2.0,NNE,8.1,-,0.00,Snow,Light Snow,30,2012-12-24 22:53:00
6:20 PM,28.4,24.8,86,29.90,1.8,NNE,5.8,-,0.00,Snow,Light Snow,30,2012-12-24 23:20:00
6:35 PM,28.4,24.8,86,29.90,2.5,NNE,6.9,-,0.00,Snow,Light Snow,30,2012-12-24 23:35:00
6:45 PM,28.4,24.8,86,29.91,3.0,NNE,5.8,-,0.00,Snow,Light Snow,20,2012-12-24 23:45:00
6:53 PM,28.0,24.1,85,29.94,2.5,NNE,6.9,-,0.00,Snow,Light Snow,30,2012-12-24 23:53:00
7:18 PM,28.4,24.8,86,29.92,1.8,North,5.8,-,0.01,Snow,Light Snow,360,2012-12-25 00:18:00
7:31 PM,28.4,24.8,86,29.93,2.5,North,5.8,-,0.01,Snow,Light Snow,350,2012-12-25 00:31:00
7:44 PM,28.4,24.8,86,29.94,3.0,North,6.9,-,0.01,Snow,Light Snow,360,2012-12-25 00:44:00
7:53 PM,28.0,24.1,85,29.97,3.0,NNW,5.8,-,0.01,Snow,Light Snow,340,2012-12-25 00:53:00
8:53 PM,28.0,24.1,85,29.99,9.0,North,8.1,-,0.00,,Overcast,350,2012-12-25 01:53:00
9:30 PM,28.4,24.8,86,29.97,10.0,North,8.1,-,N/A,,Overcast,350,2012-12-25 02:30:00
9:53 PM,28.0,24.1,85,30.01,10.0,North,6.9,-,N/A,,Overcast,350,2012-12-25 02:53:00
10:08 PM,28.4,24.8,86,29.98,10.0,North,8.1,-,N/A,,Overcast,350,2012-12-25 03:08:00
10:17 PM,28.4,24.8,86,29.98,10.0,North,9.2,-,N/A,,Overcast,350,2012-12-25 03:17:00
10:53 PM,28.0,24.1,85,30.02,10.0,North,6.9,-,N/A,,Overcast,350,2012-12-25 03:53:00
11:53 PM,25.0,21.9,88,30.03,10.0,North,5.8,-,N/A,,Clear,350,2012-12-25 04:53:00